Location: ???
(35.5616°N, 139.7977°E)
Time: 18:54:38
(UTC+00:00)

Cosmos 1378 Rocket - Pass Details

Date: 17 November 2025
Orbit: 595 x 619 km, 82.5° (Epoch: 08 December)

Event Time Altitude Azimuth Distance (km) Brightness Sun altitude
Rises 19:29:11 0° 182° (S) 2,822 7.0 -22.3°
Reaches altitude 10° 19:31:22 10° 181° (S) 1,923 6.2 -21.9°
Maximum altitude 19:35:37 79° 96° (E) 610 3.5 -21.0°
Drops below altitude 10° 19:39:53 10° 9° (N) 1,937 6.1 -20.1°
Sets 19:42:06 0° 9° (N) 2,844 7.0 -19.7°
